Honolulu, HI

8:54 PM HST on March 26, 2017 (GMT -1000)
Honolulu International

Weather History for PHNL - August, 2014

Change the Weather History Date:

Monday, August 11, 2014

  Actual Average Record
Temperature  
Mean Temperature 80 °F 82 °F  
Max Temperature 87 °F 89 °F 92 °F (1969)
Min Temperature 73 °F 75 °F 70 °F (1957)
Degree Days  
Heating Degree Days 0 0  
Month to date heating degree days 0 0  
Since 1 June heating degree days 0 0  
Since 1 July heating degree days 0 0  
Cooling Degree Days 15 17  
Month to date cooling degree days 197 187  
Year to date cooling degree days 2809 2647  
Since 1 June cooling degree days 1200 1145  
Growing Degree Days 30 (Base 50)    
Moisture  
Dew Point 68 °F    
Average Humidity 65    
Maximum Humidity 79    
Minimum Humidity 51    
Precipitation  
Precipitation 0.00 in 0.02 in 0.11 in (1988)
Month to date precipitation 0.42 0.21  
Year to date precipitation 12.09 8.55  
Snow  
Snow 0.00 in - - ()
Month to date snowfall 0.0  
Since 1 June snowfall 0.0  
Since 1 July snowfall 0.0  
Snow Depth 0.00 in    
Sea Level Pressure  
Sea Level Pressure 30.01 in    
Wind  
Wind Speed 6 mph (WNW)    
Max Wind Speed 14 mph    
Max Gust Speed 17 mph    
Visibility 10 miles    
Events      
T = Trace of Precipitation, MM = Missing Value Source: NWS Daily Summary

Daily Weather History Graph

Daily Weather History Graph

Search for Another Location

Airport or City:

Trip Planner

Search our weather history database for the weather conditions in past years. The results will help you decide how hot, cold, wet, or windy it might be!

Date:

Astronomy

Aug. 11, 2014 Rise Set
Actual Time 6:08 AM HST 7:04 PM HST
Civil Twilight 5:45 AM HST 7:27 PM HST
Nautical Twilight 5:18 AM HST 7:55 PM HST
Astronomical Twilight 4:50 AM HST 8:23 PM HST
Moon 8:00 PM HST (8/11) 7:12 AM HST (8/11)
Length of Visible Light 13h 42m
Length of Day
12h 55m
Full, 98% of the Moon is Illuminated
Aug 11
Full
Aug 17
Last Quarter
Aug 25
New
Sep 2
First Quarter
Sep 8
Full

Hourly Weather History & Observations

Time (HST) Temp. Heat Index Dew Point Humidity Pressure Visibility Wind Dir Wind Speed Gust Speed Precip Events Conditions
12:53 AM 75.9 °F - 68.0 °F 76% 30.02 in 10.0 mi North 3.5 mph - N/A   Clear
1:53 AM 75.0 °F - 68.0 °F 79% 30.01 in 10.0 mi North 3.5 mph - N/A   Clear
2:53 AM 73.9 °F - 66.9 °F 79% 29.99 in 10.0 mi Calm Calm - N/A   Clear
3:53 AM 73.9 °F - 66.9 °F 79% 30.00 in 10.0 mi NNW 3.5 mph - N/A   Clear
4:53 AM 73.0 °F - 66.9 °F 81% 30.00 in 10.0 mi North 4.6 mph - N/A   Clear
5:53 AM 73.0 °F - 66.9 °F 81% 30.00 in 10.0 mi NNW 4.6 mph - N/A   Clear
6:53 AM 75.0 °F - 66.0 °F 73% 30.01 in 10.0 mi North 4.6 mph - N/A   Clear
7:53 AM 79.0 °F - 66.9 °F 66% 30.02 in 10.0 mi NNW 3.5 mph - N/A   Partly Cloudy
8:53 AM 82.9 °F 85.4 °F 66.9 °F 58% 30.03 in 10.0 mi Variable 3.5 mph - N/A   Scattered Clouds
9:53 AM 84.0 °F 85.8 °F 64.9 °F 53% 30.03 in 10.0 mi SSE 5.8 mph - N/A   Scattered Clouds
10:53 AM 84.9 °F 87.1 °F 66.0 °F 53% 30.02 in 10.0 mi SSW 6.9 mph - N/A   Scattered Clouds
11:53 AM 84.9 °F 88.2 °F 68.0 °F 57% 30.02 in 10.0 mi SSW 10.4 mph - N/A   Scattered Clouds
12:53 PM 86.0 °F 89.4 °F 68.0 °F 55% 30.01 in 10.0 mi SW 12.7 mph - N/A   Scattered Clouds
1:53 PM 86.0 °F 90.1 °F 69.1 °F 57% 30.00 in 10.0 mi SW 10.4 mph - N/A   Scattered Clouds
2:53 PM 86.0 °F 90.1 °F 69.1 °F 57% 29.99 in 10.0 mi SSW 10.4 mph - N/A   Partly Cloudy
3:53 PM 84.9 °F 89.4 °F 70.0 °F 61% 29.98 in 10.0 mi SSW 11.5 mph - N/A   Partly Cloudy
4:53 PM 84.0 °F 88.4 °F 70.0 °F 63% 29.97 in 10.0 mi SW 10.4 mph - N/A   Scattered Clouds
5:53 PM 82.9 °F 87.0 °F 70.0 °F 65% 29.98 in 10.0 mi SW 6.9 mph - N/A   Scattered Clouds
6:53 PM 82.0 °F 86.3 °F 71.1 °F 69% 30.00 in 10.0 mi SW 6.9 mph - N/A   Scattered Clouds
7:53 PM 82.0 °F 85.9 °F 70.0 °F 67% 30.02 in 10.0 mi NE 6.9 mph - N/A   Partly Cloudy
8:53 PM 81.0 °F 84.4 °F 70.0 °F 69% 30.03 in 10.0 mi North 6.9 mph - N/A   Partly Cloudy
9:53 PM 80.1 °F 83.2 °F 70.0 °F 71% 30.06 in 10.0 mi North 4.6 mph - N/A   Scattered Clouds
10:53 PM 79.0 °F - 70.0 °F 74% 30.06 in 10.0 mi NNE 4.6 mph - N/A   Partly Cloudy
11:53 PM 79.0 °F - 70.0 °F 74% 30.06 in 10.0 mi East 8.1 mph - N/A   Partly Cloudy